CP2555 SLET-SLCP

Flight info

Callsign CP2555
Flight time 0h 41m
Altitude 10000
Route VIR SLCP
Aircraft BT36/L-BDFGLORY/S

Departure

Time 2026-05-07 19:08
Airport El Trompillo Airport (SLET)

Arrival

Time 2026-05-07 19:49
Airport Concepción Airport (SLCP)
Time Latitude Longitude Altitude Speed Heading
2026-05-07 18:49 -17.80188 -63.17620 1378 ft 0 kts 79°
2026-05-07 18:57 -17.80184 -63.17614 1378 ft 1 kts
2026-05-07 18:57 -17.80184 -63.17645 1378 ft 0 kts 217°
2026-05-07 19:00 -17.80192 -63.17651 1378 ft 6 kts 212°
2026-05-07 19:00 -17.80280 -63.17668 1377 ft 13 kts 179°
2026-05-07 19:00 -17.80367 -63.17625 1378 ft 21 kts 145°
2026-05-07 19:01 -17.80441 -63.17568 1375 ft 19 kts 142°
2026-05-07 19:01 -17.80551 -63.17486 1376 ft 21 kts 144°
2026-05-07 19:01 -17.80655 -63.17412 1374 ft 26 kts 145°
2026-05-07 19:01 -17.80798 -63.17328 1373 ft 21 kts 148°
2026-05-07 19:02 -17.80883 -63.17277 1372 ft 7 kts 154°
2026-05-07 19:02 -17.80904 -63.17268 1371 ft 0 kts 161°
2026-05-07 19:02 -17.80949 -63.17285 1370 ft 12 kts 192°
2026-05-07 19:03 -17.81055 -63.17217 1369 ft 16 kts 143°
2026-05-07 19:03 -17.81164 -63.17133 1369 ft 23 kts 143°
2026-05-07 19:03 -17.81310 -63.17023 1367 ft 27 kts 142°
2026-05-07 19:03 -17.81483 -63.16893 1367 ft 31 kts 146°
2026-05-07 19:04 -17.81657 -63.16763 1365 ft 30 kts 143°
2026-05-07 19:04 -17.81846 -63.16620 1361 ft 34 kts 143°
2026-05-07 19:04 -17.82019 -63.16491 1360 ft 26 kts 143°
2026-05-07 19:04 -17.82146 -63.16455 1359 ft 17 kts 170°
2026-05-07 19:05 -17.82185 -63.16412 1359 ft 0 kts 82°
2026-05-07 19:05 -17.82173 -63.16395 1359 ft 2 kts 29°
2026-05-07 19:06 -17.82137 -63.16401 1359 ft 0 kts 324°
2026-05-07 19:07 -17.82016 -63.16490 1362 ft 64 kts 325°
2026-05-07 19:08 -17.81517 -63.16865 1623 ft 110 kts 331°
2026-05-07 19:08 -17.80826 -63.17380 2046 ft 129 kts 323°
2026-05-07 19:08 -17.80122 -63.17945 2606 ft 132 kts 321°
2026-05-07 19:08 -17.79417 -63.18535 3256 ft 139 kts 320°
2026-05-07 19:09 -17.78628 -63.19182 3681 ft 152 kts 320°
2026-05-07 19:09 -17.77891 -63.19830 4112 ft 131 kts 317°
2026-05-07 19:09 -17.77188 -63.20440 4423 ft 131 kts 320°
2026-05-07 19:09 -17.76500 -63.21050 4668 ft 135 kts 318°
2026-05-07 19:10 -17.75639 -63.21501 4739 ft 149 kts 346°
2026-05-07 19:10 -17.74588 -63.21083 4791 ft 181 kts 27°
2026-05-07 19:10 -17.73758 -63.20067 4966 ft 185 kts 37°
2026-05-07 19:10 -17.72976 -63.19022 5340 ft 181 kts 37°
2026-05-07 19:11 -17.72188 -63.17973 5708 ft 185 kts 37°
2026-05-07 19:11 -17.71365 -63.16924 6072 ft 186 kts 36°
2026-05-07 19:11 -17.70529 -63.15864 6422 ft 189 kts 37°
2026-05-07 19:11 -17.69601 -63.14984 6747 ft 174 kts 13°
2026-05-07 19:12 -17.68461 -63.14721 6969 ft 167 kts 356°
2026-05-07 19:12 -17.67309 -63.14568 7331 ft 166 kts 358°
2026-05-07 19:12 -17.66160 -63.14401 7695 ft 168 kts 358°
2026-05-07 19:12 -17.64992 -63.14219 8044 ft 170 kts 359°
2026-05-07 19:13 -17.63810 -63.14020 8391 ft 173 kts 359°
2026-05-07 19:13 -17.62633 -63.13973 8722 ft 170 kts 351°
2026-05-07 19:13 -17.61436 -63.13687 9076 ft 183 kts
2026-05-07 19:13 -17.60296 -63.13042 9447 ft 194 kts 23°
2026-05-07 19:14 -17.59183 -63.12192 9694 ft 207 kts 27°
2026-05-07 19:14 -17.58018 -63.11277 9692 ft 205 kts 27°
2026-05-07 19:14 -17.56888 -63.10411 9628 ft 199 kts 25°
2026-05-07 19:14 -17.55787 -63.09534 9628 ft 198 kts 26°
2026-05-07 19:15 -17.54649 -63.08699 9626 ft 204 kts 25°
2026-05-07 19:15 -17.53494 -63.07825 9629 ft 203 kts 26°
2026-05-07 19:15 -17.52364 -63.06950 9631 ft 201 kts 26°
2026-05-07 19:15 -17.51235 -63.06086 9632 ft 200 kts 26°
2026-05-07 19:16 -17.50105 -63.05227 9635 ft 200 kts 26°
2026-05-07 19:16 -17.48977 -63.04364 9637 ft 200 kts 26°
2026-05-07 19:16 -17.47839 -63.03498 9639 ft 203 kts 26°
2026-05-07 19:16 -17.46704 -63.02633 9642 ft 205 kts 26°
2026-05-07 19:17 -17.45547 -63.01750 9647 ft 205 kts 26°
2026-05-07 19:17 -17.44389 -63.00866 9647 ft 206 kts 26°
2026-05-07 19:17 -17.43232 -62.99982 9654 ft 205 kts 26°
2026-05-07 19:17 -17.42084 -62.99107 9657 ft 204 kts 26°
2026-05-07 19:18 -17.40936 -62.98231 9659 ft 204 kts 26°
2026-05-07 19:18 -17.39797 -62.97364 9652 ft 204 kts 26°
2026-05-07 19:18 -17.38655 -62.96493 9660 ft 204 kts 26°
2026-05-07 19:18 -17.37503 -62.95615 9663 ft 204 kts 25°
2026-05-07 19:19 -17.36352 -62.94739 9669 ft 204 kts 25°
2026-05-07 19:19 -17.35205 -62.93865 9669 ft 205 kts 26°
2026-05-07 19:19 -17.34052 -62.92986 9670 ft 204 kts 25°
2026-05-07 19:19 -17.32921 -62.92124 9670 ft 203 kts 26°
2026-05-07 19:20 -17.31782 -62.91256 9668 ft 202 kts 25°
2026-05-07 19:20 -17.30647 -62.90393 9672 ft 201 kts 25°
2026-05-07 19:20 -17.29514 -62.89531 9664 ft 201 kts 25°
2026-05-07 19:20 -17.28379 -62.88667 9670 ft 201 kts 25°
2026-05-07 19:21 -17.27240 -62.87801 9674 ft 202 kts 25°
2026-05-07 19:21 -17.26114 -62.86945 9676 ft 203 kts 25°
2026-05-07 19:21 -17.24974 -62.86077 9670 ft 202 kts 25°
2026-05-07 19:21 -17.23832 -62.85206 9668 ft 201 kts 25°
2026-05-07 19:22 -17.22695 -62.84344 9674 ft 201 kts 25°
2026-05-07 19:22 -17.21572 -62.83490 9666 ft 202 kts 25°
2026-05-07 19:22 -17.20439 -62.82628 9671 ft 201 kts 25°
2026-05-07 19:22 -17.19300 -62.81763 9667 ft 202 kts 25°
2026-05-07 19:23 -17.18162 -62.80898 9667 ft 202 kts 25°
2026-05-07 19:23 -17.17033 -62.80040 9669 ft 202 kts 25°
2026-05-07 19:23 -17.15900 -62.79179 9672 ft 202 kts 25°
2026-05-07 19:23 -17.14760 -62.78313 9672 ft 202 kts 25°
2026-05-07 19:24 -17.13622 -62.77448 9666 ft 202 kts 25°
2026-05-07 19:24 -17.12483 -62.76584 9667 ft 202 kts 25°
2026-05-07 19:24 -17.11359 -62.75730 9673 ft 202 kts 25°
2026-05-07 19:24 -17.10226 -62.74869 9673 ft 201 kts 25°
2026-05-07 19:25 -17.09089 -62.74007 9671 ft 202 kts 25°
2026-05-07 19:25 -17.07949 -62.73142 9679 ft 202 kts 25°
2026-05-07 19:25 -17.06805 -62.72274 9670 ft 203 kts 26°
2026-05-07 19:25 -17.05664 -62.71407 9672 ft 203 kts 26°
2026-05-07 19:26 -17.04535 -62.70548 9746 ft 198 kts 26°
2026-05-07 19:26 -17.03424 -62.69704 9854 ft 197 kts 26°
2026-05-07 19:26 -17.02302 -62.68859 9937 ft 203 kts 26°
2026-05-07 19:26 -17.01139 -62.67979 9935 ft 205 kts 26°
2026-05-07 19:27 -16.99989 -62.67102 9928 ft 205 kts 26°
2026-05-07 19:27 -16.98841 -62.66233 9933 ft 205 kts 26°
2026-05-07 19:27 -16.97680 -62.65354 9934 ft 205 kts 26°
2026-05-07 19:27 -16.96524 -62.64478 9937 ft 206 kts 26°
2026-05-07 19:28 -16.95366 -62.63601 9934 ft 205 kts 26°
2026-05-07 19:28 -16.94206 -62.62722 9934 ft 208 kts 26°
2026-05-07 19:28 -16.93030 -62.61836 9935 ft 210 kts 26°
2026-05-07 19:28 -16.91879 -62.60956 9932 ft 204 kts 26°
2026-05-07 19:29 -16.90738 -62.60090 9939 ft 201 kts 26°
2026-05-07 19:29 -16.89606 -62.59236 9930 ft 201 kts 26°
2026-05-07 19:29 -16.88475 -62.58381 9936 ft 200 kts 26°
2026-05-07 19:29 -16.87345 -62.57526 9929 ft 201 kts 26°
2026-05-07 19:30 -16.86212 -62.56668 9935 ft 200 kts 26°
2026-05-07 19:30 -16.85089 -62.55817 9937 ft 200 kts 26°
2026-05-07 19:30 -16.83965 -62.54968 9929 ft 200 kts 26°
2026-05-07 19:30 -16.82830 -62.54110 9936 ft 201 kts 26°
2026-05-07 19:31 -16.81713 -62.53265 9932 ft 201 kts 26°
2026-05-07 19:31 -16.80581 -62.52409 9933 ft 201 kts 26°
2026-05-07 19:31 -16.79443 -62.51549 9942 ft 202 kts 26°
2026-05-07 19:31 -16.78306 -62.50694 9939 ft 200 kts 25°
2026-05-07 19:32 -16.77169 -62.49856 9936 ft 199 kts 26°
2026-05-07 19:32 -16.76057 -62.49013 9933 ft 199 kts 26°
2026-05-07 19:32 -16.74939 -62.48162 9939 ft 199 kts 26°
2026-05-07 19:32 -16.74191 -62.47595 9941 ft 200 kts 26°
2026-05-07 19:33 -16.73032 -62.46727 9946 ft 209 kts 26°
2026-05-07 19:33 -16.71854 -62.45835 9945 ft 208 kts 27°
2026-05-07 19:33 -16.70304 -62.44658 9950 ft 205 kts 27°
2026-05-07 19:33 -16.69540 -62.44074 9949 ft 198 kts 26°
2026-05-07 19:34 -16.68079 -62.42973 9939 ft 194 kts 26°
2026-05-07 19:34 -16.67339 -62.42418 9947 ft 193 kts 26°
2026-05-07 19:34 -16.66252 -62.41599 9941 ft 193 kts 26°
2026-05-07 19:34 -16.65167 -62.40780 9943 ft 193 kts 26°
2026-05-07 19:35 -16.64089 -62.39966 9946 ft 193 kts 26°
2026-05-07 19:35 -16.62997 -62.39143 9946 ft 193 kts 26°
2026-05-07 19:35 -16.61899 -62.38315 9949 ft 194 kts 26°
2026-05-07 19:35 -16.60801 -62.37487 9949 ft 194 kts 26°
2026-05-07 19:36 -16.59706 -62.36660 9948 ft 195 kts 26°
2026-05-07 19:36 -16.58614 -62.35837 9951 ft 195 kts 26°
2026-05-07 19:36 -16.57519 -62.35013 9952 ft 194 kts 26°
2026-05-07 19:36 -16.56424 -62.34186 9950 ft 194 kts 26°
2026-05-07 19:37 -16.55323 -62.33357 9952 ft 195 kts 26°
2026-05-07 19:37 -16.54227 -62.32532 9950 ft 195 kts 27°
2026-05-07 19:37 -16.53133 -62.31707 9953 ft 196 kts 26°
2026-05-07 19:37 -16.52023 -62.30871 9956 ft 196 kts 26°
2026-05-07 19:38 -16.50919 -62.30039 9952 ft 196 kts 27°
2026-05-07 19:38 -16.49814 -62.29206 9952 ft 195 kts 27°
2026-05-07 19:38 -16.48711 -62.28376 9956 ft 196 kts 27°
2026-05-07 19:38 -16.47601 -62.27541 9957 ft 196 kts 27°
2026-05-07 19:39 -16.46493 -62.26707 9957 ft 196 kts 27°
2026-05-07 19:39 -16.45385 -62.25873 9956 ft 196 kts 26°
2026-05-07 19:39 -16.44280 -62.25040 9959 ft 196 kts 27°
2026-05-07 19:39 -16.43177 -62.24211 9961 ft 195 kts 26°
2026-05-07 19:40 -16.42078 -62.23384 9969 ft 194 kts 27°
2026-05-07 19:40 -16.40982 -62.22559 9976 ft 194 kts 27°
2026-05-07 19:40 -16.39896 -62.21744 9984 ft 195 kts 27°
2026-05-07 19:40 -16.38795 -62.20915 9989 ft 196 kts 27°
2026-05-07 19:41 -16.37678 -62.20078 10000 ft 200 kts 27°
2026-05-07 19:41 -16.36533 -62.19220 10007 ft 204 kts 27°
2026-05-07 19:41 -16.35379 -62.18350 10016 ft 205 kts 27°
2026-05-07 19:41 -16.34220 -62.17477 10026 ft 206 kts 27°
2026-05-07 19:42 -16.33058 -62.16605 10015 ft 205 kts 27°
2026-05-07 19:42 -16.31909 -62.15742 10004 ft 205 kts 27°
2026-05-07 19:42 -16.30743 -62.14865 10005 ft 205 kts 27°
2026-05-07 19:42 -16.29588 -62.13997 10009 ft 204 kts 27°
2026-05-07 19:43 -16.28443 -62.13137 10014 ft 205 kts 27°
2026-05-07 19:43 -16.27291 -62.12271 9879 ft 192 kts 27°
2026-05-07 19:43 -16.26278 -62.11492 9569 ft 175 kts 25°
2026-05-07 19:43 -16.25274 -62.10753 9159 ft 177 kts 25°
2026-05-07 19:44 -16.24429 -62.09772 8754 ft 186 kts 46°
2026-05-07 19:44 -16.23709 -62.08660 8362 ft 185 kts 49°
2026-05-07 19:44 -16.23047 -62.07529 7967 ft 184 kts 50°
2026-05-07 19:44 -16.22386 -62.06388 7423 ft 186 kts 49°
2026-05-07 19:45 -16.21716 -62.05232 6799 ft 185 kts 50°
2026-05-07 19:45 -16.21209 -62.04013 6164 ft 193 kts 73°
2026-05-07 19:45 -16.21446 -62.02612 5506 ft 201 kts 108°
2026-05-07 19:45 -16.22011 -62.01297 4863 ft 182 kts 109°
2026-05-07 19:46 -16.22526 -62.00169 4211 ft 169 kts 107°
2026-05-07 19:46 -16.22622 -61.99064 3640 ft 142 kts 60°
2026-05-07 19:46 -16.22005 -61.98426 3204 ft 124 kts
2026-05-07 19:46 -16.21158 -61.98460 2744 ft 124 kts 340°
2026-05-07 19:47 -16.20368 -61.98799 2412 ft 121 kts 333°
2026-05-07 19:47 -16.19754 -61.99335 2282 ft 113 kts 320°
2026-05-07 19:47 -16.19249 -61.99937 2161 ft 108 kts 317°
2026-05-07 19:47 -16.18724 -62.00534 2153 ft 120 kts 319°
2026-05-07 19:48 -16.18051 -62.01028 2201 ft 122 kts 342°
2026-05-07 19:48 -16.17247 -62.01307 2189 ft 129 kts 343°
2026-05-07 19:48 -16.16386 -62.01629 1998 ft 126 kts 338°
2026-05-07 19:48 -16.15625 -62.01972 1903 ft 116 kts 335°
2026-05-07 19:49 -16.14992 -62.02287 1694 ft 88 kts 335°
2026-05-07 19:49 -16.14494 -62.02533 1642 ft 60 kts 339°
2026-05-07 19:49 -16.14322 -62.02617 1636 ft 16 kts 333°
2026-05-07 19:49 -16.14085 -62.02738 1627 ft 49 kts 334°
2026-05-07 19:50 -16.13847 -62.02801 1625 ft 16 kts 355°
2026-05-07 19:50 -16.13813 -62.02798 1625 ft 9 kts 349°
2026-05-07 19:50 -16.13809 -62.02800 1625 ft 0 kts 338°